Stündliche Wetter Abay

Heute, 23 Juni, Mittwoch

Zeit Temperatur Niederschläge Wind Luftdruck Luftfeuchtigkeit
00:00 +11°C° 0 mm 1 m/S 716 mmHg 73%
01:00 +12°C° 0 mm 1 m/S 716 mmHg 69%
02:00 +12°C° 0 mm 2 m/S 715 mmHg 65%
03:00 +12°C° 0 mm 2 m/S 715 mmHg 67%
04:00 +12°C° 0 mm 2 m/S 715 mmHg 68%
05:00 +12°C° 0 mm 2 m/S 715 mmHg 70%
06:00 +11°C° 0.6 mm 3 m/S 714 mmHg 74%
07:00 +11°C° 0.6 mm 4 m/S 714 mmHg 78%
08:00 +11°C° 0.6 mm 4 m/S 714 mmHg 82%
09:00 +13°C° 0.1 mm 5 m/S 713 mmHg 74%
10:00 +14°C° 0.1 mm 6 m/S 712 mmHg 66%
11:00 +16°C° 0.1 mm 6 m/S 712 mmHg 59%
12:00 +16°C° 0.3 mm 7 m/S 711 mmHg 61%
13:00 +17°C° 0.3 mm 7 m/S 710 mmHg 64%
14:00 +17°C° 0.3 mm 7 m/S 709 mmHg 67%
15:00 +17°C° 0.9 mm 7 m/S 709 mmHg 71%
16:00 +16°C° 0.9 mm 6 m/S 710 mmHg 74%
17:00 +15°C° 0.9 mm 6 m/S 710 mmHg 78%
18:00 +14°C° 0 mm 6 m/S 710 mmHg 79%
19:00 +13°C° 0 mm 5 m/S 711 mmHg 79%
20:00 +12°C° 0 mm 5 m/S 711 mmHg 80%
21:00 +11°C° 0 mm 4 m/S 711 mmHg 83%
22:00 +8°C° 0 mm 4 m/S 712 mmHg 85%
23:00 +8°C° 0 mm 3 m/S 712 mmHg 88%

Morgen, 24 Juni, Donnerstag

Zeit Temperatur Niederschläge Wind Luftdruck Luftfeuchtigkeit
00:00 +7°C° 0 mm 3 m/S 712 mmHg 89%
01:00 +7°C° 0 mm 3 m/S 712 mmHg 90%
02:00 +6°C° 0 mm 2 m/S 712 mmHg 91%
03:00 +5°C° 0 mm 3 m/S 712 mmHg 91%
04:00 +5°C° 0 mm 3 m/S 713 mmHg 91%
05:00 +5°C° 0 mm 3 m/S 713 mmHg 91%
06:00 +8°C° 0 mm 3 m/S 713 mmHg 83%
07:00 +8°C° 0 mm 4 m/S 713 mmHg 75%
08:00 +10°C° 0 mm 5 m/S 713 mmHg 67%
09:00 +12°C° 0.1 mm 5 m/S 713 mmHg 62%
10:00 +12°C° 0.1 mm 5 m/S 713 mmHg 57%
11:00 +13°C° 0.1 mm 5 m/S 714 mmHg 52%
12:00 +13°C° 0 mm 5 m/S 714 mmHg 49%
13:00 +14°C° 0 mm 6 m/S 714 mmHg 46%
14:00 +14°C° 0 mm 6 m/S 714 mmHg 43%
15:00 +14°C° 0 mm 5 m/S 714 mmHg 44%
16:00 +14°C° 0 mm 5 m/S 714 mmHg 45%
17:00 +14°C° 0 mm 5 m/S 714 mmHg 46%
18:00 +14°C° 0 mm 4 m/S 715 mmHg 50%
19:00 +13°C° 0 mm 3 m/S 715 mmHg 54%
20:00 +13°C° 0 mm 2 m/S 715 mmHg 58%
21:00 +12°C° 0 mm 2 m/S 715 mmHg 62%
22:00 +10°C° 0 mm 2 m/S 715 mmHg 67%
23:00 +9°C° 0 mm 2 m/S 715 mmHg 71%

übermorgen, 25 Juni, Freitag

Zeit Temperatur Niederschläge Wind Luftdruck Luftfeuchtigkeit
00:00 +8°C° 0 mm 2 m/S 715 mmHg 75%
01:00 +8°C° 0 mm 1 m/S 715 mmHg 78%
02:00 +8°C° 0 mm 1 m/S 715 mmHg 81%
03:00 +8°C° 0 mm 1 m/S 715 mmHg 79%
04:00 +9°C° 0 mm 1 m/S 715 mmHg 77%
05:00 +9°C° 0 mm 1 m/S 715 mmHg 75%
06:00 +10°C° 0 mm 1 m/S 715 mmHg 71%
07:00 +11°C° 0 mm 1 m/S 716 mmHg 66%
08:00 +11°C° 0 mm 0 m/S 716 mmHg 61%
09:00 +13°C° 0 mm 1 m/S 716 mmHg 57%
10:00 +14°C° 0 mm 1 m/S 716 mmHg 53%
11:00 +15°C° 0 mm 1 m/S 715 mmHg 48%
12:00 +16°C° 0 mm 2 m/S 715 mmHg 48%
13:00 +16°C° 0 mm 3 m/S 715 mmHg 48%
14:00 +16°C° 0 mm 3 m/S 715 mmHg 49%
15:00 +17°C° 0 mm 4 m/S 715 mmHg 46%
16:00 +17°C° 0 mm 4 m/S 715 mmHg 43%
17:00 +17°C° 0 mm 5 m/S 715 mmHg 41%
18:00 +17°C° 0 mm 4 m/S 715 mmHg 48%
19:00 +14°C° 0 mm 4 m/S 714 mmHg 55%
20:00 +13°C° 0 mm 3 m/S 714 mmHg 63%
21:00 +13°C° 0 mm 2 m/S 714 mmHg 68%
22:00 +12°C° 0 mm 2 m/S 714 mmHg 73%
23:00 +11°C° 0 mm 1 m/S 714 mmHg 78%

26 Juni, Samstag

Zeit Temperatur Niederschläge Wind Luftdruck Luftfeuchtigkeit
00:00 +10°C° 0 mm 1 m/S 713 mmHg 79%
01:00 +10°C° 0 mm 1 m/S 713 mmHg 81%
02:00 +10°C° 0 mm 1 m/S 713 mmHg 83%
03:00 +10°C° 0 mm 1 m/S 713 mmHg 82%
04:00 +11°C° 0 mm 1 m/S 713 mmHg 80%
05:00 +10°C° 0 mm 0 m/S 714 mmHg 79%
06:00 +13°C° 0 mm 1 m/S 714 mmHg 72%
07:00 +14°C° 0 mm 1 m/S 714 mmHg 66%
08:00 +15°C° 0 mm 1 m/S 714 mmHg 60%
09:00 +18°C° 0 mm 1 m/S 714 mmHg 53%
10:00 +19°C° 0 mm 1 m/S 714 mmHg 47%
11:00 +20°C° 0 mm 1 m/S 714 mmHg 41%
12:00 +21°C° 0 mm 1 m/S 714 mmHg 39%
13:00 +22°C° 0 mm 1 m/S 714 mmHg 36%
14:00 +22°C° 0 mm 1 m/S 714 mmHg 34%
15:00 +23°C° 0 mm 1 m/S 714 mmHg 34%
16:00 +23°C° 0 mm 1 m/S 714 mmHg 33%
17:00 +23°C° 0 mm 1 m/S 714 mmHg 33%
18:00 +21°C° 0 mm 2 m/S 714 mmHg 37%
19:00 +20°C° 0 mm 3 m/S 714 mmHg 41%
20:00 +18°C° 0 mm 4 m/S 713 mmHg 46%
21:00 +18°C° 0 mm 4 m/S 713 mmHg 47%
22:00 +17°C° 0 mm 4 m/S 713 mmHg 48%
23:00 +15°C° 0 mm 4 m/S 713 mmHg 49%

27 Juni, Sonntag

Zeit Temperatur Niederschläge Wind Luftdruck Luftfeuchtigkeit
00:00 +15°C° 0 mm 4 m/S 713 mmHg 49%
01:00 +15°C° 0 mm 5 m/S 712 mmHg 50%
02:00 +15°C° 0 mm 5 m/S 712 mmHg 51%
03:00 +15°C° 0 mm 5 m/S 712 mmHg 50%
04:00 +16°C° 0 mm 6 m/S 712 mmHg 50%
05:00 +16°C° 0 mm 6 m/S 712 mmHg 49%
06:00 +17°C° 0 mm 6 m/S 712 mmHg 48%
07:00 +17°C° 0 mm 6 m/S 712 mmHg 47%
08:00 +19°C° 0 mm 6 m/S 712 mmHg 46%
09:00 +18°C° 0.1 mm 7 m/S 712 mmHg 47%
10:00 +20°C° 0.1 mm 8 m/S 711 mmHg 48%
11:00 +21°C° 0.1 mm 9 m/S 711 mmHg 48%
12:00 +23°C° 0.1 mm 9 m/S 711 mmHg 45%
13:00 +24°C° 0.1 mm 9 m/S 711 mmHg 41%
14:00 +27°C° 0.1 mm 9 m/S 710 mmHg 37%
15:00 +26°C° 0.1 mm 7 m/S 710 mmHg 43%
16:00 +24°C° 0.1 mm 6 m/S 709 mmHg 49%
17:00 +23°C° 0.1 mm 4 m/S 709 mmHg 55%
18:00 +22°C° 2.2 mm 4 m/S 709 mmHg 66%
19:00 +20°C° 2.2 mm 4 m/S 709 mmHg 77%
20:00 +18°C° 2.2 mm 3 m/S 710 mmHg 87%
21:00 +18°C° 0.1 mm 3 m/S 709 mmHg 86%
22:00 +17°C° 0.1 mm 3 m/S 709 mmHg 85%
23:00 +17°C° 0.1 mm 2 m/S 709 mmHg 84%

28 Juni, Montag

Zeit Temperatur Niederschläge Wind Luftdruck Luftfeuchtigkeit
00:00 +17°C° 0.1 mm 2 m/S 709 mmHg 86%
01:00 +16°C° 0.1 mm 2 m/S 709 mmHg 87%
02:00 +16°C° 0.1 mm 2 m/S 709 mmHg 89%
03:00 +16°C° 0.1 mm 1 m/S 709 mmHg 89%
04:00 +16°C° 0.1 mm 1 m/S 709 mmHg 89%
05:00 +16°C° 0.1 mm 1 m/S 709 mmHg 90%
06:00 +18°C° 0 mm 1 m/S 709 mmHg 85%
07:00 +18°C° 0 mm 2 m/S 710 mmHg 80%
08:00 +19°C° 0 mm 2 m/S 710 mmHg 75%
09:00 +21°C° 0.1 mm 2 m/S 710 mmHg 69%
10:00 +22°C° 0.1 mm 3 m/S 710 mmHg 64%
11:00 +24°C° 0.1 mm 3 m/S 711 mmHg 58%
12:00 +25°C° 0 mm 3 m/S 710 mmHg 54%
13:00 +26°C° 0 mm 3 m/S 710 mmHg 49%
14:00 +26°C° 0 mm 4 m/S 710 mmHg 45%
15:00 +26°C° 0 mm 4 m/S 710 mmHg 44%
16:00 +26°C° 0 mm 4 m/S 710 mmHg 43%
17:00 +26°C° 0 mm 4 m/S 710 mmHg 42%
18:00 +25°C° 0 mm 4 m/S 710 mmHg 47%
19:00 +22°C° 0 mm 3 m/S 710 mmHg 51%
20:00 +21°C° 0 mm 3 m/S 710 mmHg 55%
21:00 +21°C° 0 mm 3 m/S 710 mmHg 56%
22:00 +20°C° 0 mm 2 m/S 710 mmHg 57%
23:00 +20°C° 0 mm 2 m/S 710 mmHg 57%
Mehr zeigen

Wir brauchen deine Erlaubnis

Meteoprog und unser Service Anbieter werden persönliche Daten aufbewahren, so wie Cookies, Geräte Bezeichnung oder ähnliche Technologien von deinem Gerät und Prozess, so wie Persönliche Daten Inhalte und Werbungen, genauso wie social Media und den Verkehr zu analysieren.

  • Aufbewahrung und/oder Zugang zu deiner Geräte Informationen.

    Cookies, Geräte Bezeichnung oder andere Informationen, können aufbewahrt oder Zugang zu deinem Gerät erhalten, für den Grund, der oben angegeben wird.

  • Personalisierte Werbung und Inhalte, Messungen, Einblick in das Publikum und Produkt Entwicklung.

    Werbungen und Inhalte können personalisiert werden, basierend auf ein Profil. Mehr Daten können besser personalisierte Werbungen und Inhalte hinzufügen. Werbung und Inhalte können gezeigt und gemessen werden. Einblicke über das Publikum, welche die Werbung gesehen haben und den Inhalt, können abgeleitet werden. So wie Daten können genutzt werden, um es zu verbessern oder die Benutzer Erfahrung zu verbessern das System und die Software.

Wenn du “Ich stimme zu” klickst, erlaubst du uns, die Cookies zu benutzen die Geräte Bezeichnung, den Web oder ähnliche Technologien zu benutzen. Deine Settings, können in deinem Gerät bei deinem Browser geändert werden.

Für den bestimmten Zweck, berechtigten Interessen beruhen darauf, mehr als auf den Inhalt. Du kannst mehr darüber in unseren Privaten und Cookie Politik lesen.